This is the latest recevied weather packets stored in our database for station/object KI4BSX. If no packets are shown the sender has not sent any weather packets the latest 10 day(s).
| Time | Temp. | Humidity | Pressure | Rain* | Wind** | Luminosity | Snow |
|---|---|---|---|---|---|---|---|
| 1777924982 | 25.56° C | 37% | 1016.9 hPa | 0 mm | - | - | - |
| 1777924678 | 26.11° C | 37% | 1017.3 hPa | 0 mm | - | - | - |
| 1777924374 | 25.56° C | 38% | 1017 hPa | 0 mm | - | - | - |
| 1777924071 | 25.56° C | 36% | 1017.1 hPa | 0 mm | - | - | - |
| 1777923767 | 26.11° C | 36% | 1017.2 hPa | 0 mm | - | - | - |
| 1777923463 | 26.11° C | 36% | 1017.4 hPa | 0 mm | - | - | - |
| 1777923161 | 26.67° C | 37% | 1017.4 hPa | 0 mm | - | - | - |
| 1777922859 | 26.67° C | 36% | 1017.4 hPa | 0 mm | - | - | - |
| 1777922557 | 26.67° C | 37% | 1017.5 hPa | 0 mm | - | - | - |
| 1777922256 | 25.56° C | 36% | 1017.6 hPa | 0 mm | - | - | - |
| 1777921952 | 25.56° C | 36% | 1017.6 hPa | 0 mm | - | - | - |
| 1777921647 | 25° C | 37% | 1017.7 hPa | 0 mm | - | - | - |
| 1777921344 | 25° C | 36% | 1017.5 hPa | 0 mm | - | - | - |
| 1777921041 | 25.56° C | 36% | 1017.7 hPa | 0 mm | - | - | - |
| 1777920738 | 26.11° C | 37% | 1017.9 hPa | 0 mm | - | - | - |
| 1777920434 | 26.67° C | 38% | 1017.7 hPa | 0 mm | - | - | - |
| 1777920130 | 25.56° C | 40% | 1017.9 hPa | 0 mm | - | - | - |
| 1777919826 | 25° C | 38% | 1018.1 hPa | 0 mm | - | - | - |
| 1777919523 | 25.56° C | 39% | 1018.2 hPa | 0 mm | - | - | - |
| 1777919221 | 25.56° C | 38% | 1018.4 hPa | 0 mm | - | - | - |
| 1777918918 | 25.56° C | 40% | 1018.5 hPa | 0 mm | - | - | - |
| 1777918615 | 25° C | 39% | 1018.4 hPa | 0 mm | - | - | - |
| 1777918313 | 24.44° C | 39% | 1018.2 hPa | 0 mm | - | - | - |
| 1777918012 | 24.44° C | 39% | 1018.6 hPa | 0 mm | - | - | - |
| 1777917710 | 24.44° C | 40% | 1018.5 hPa | 0 mm | - | - | - |
* Rain latest hour (hover to see other rain measurements)
** Current wind speed in m/s (hover to see current wind gust speed)